Location: Newark
(43.5831°N, 21.3381°E)
Time: 12:19:08
(UTC+00:00)

UNISAT 6 - Pass Details

Date: 22 February 2020
Orbit: 608 x 688 km, 97.7° (Epoch: 28 March)

Event Time Altitude Azimuth Distance (km) Brightness Sun altitude
Rises 04:48:38 0° 119° (ESE) 2,863 ? -7.1°
Reaches altitude 10° 04:51:41 10° 94° (E) 1,970 ? -6.5°
Maximum altitude 04:53:57 14° 62° (ENE) 1,714 ? -6.1°
Drops below altitude 10° 04:56:14 10° 30° (NNE) 1,992 ? -5.7°
Sets 04:59:20 0° 6° (N) 2,918 ? -5.2°
